RH
6 6 10 30 30 32 39 61 37 17 10 8 9 9 16 22 25 25 21 15 9 6 6 5 5 5 6 6 6 7 9 8 7 7 11 15 16 26 34 38 39 40 42
18 13 8 11 24 34 38 38 61 52 18 12 8 8 9 14 20 25 26 24 19 14 9 8 7 7 8 8 9 9 12 12 10 8 9 16 18 25 40 46 45 46 46
37 33 25 14 8 16 29 42 44 57 66 26 15 8 8 9 13 18 24 27 27 25 21 18 16 14 14 14 12 13 15 14 13 11 9 15 22 24 32 46 51 53 54
22 37 42 23 27 11 14 24 47 54 54 67 47 20 10 8 9 13 18 21 26 27 27 26 24 21 20 19 18 17 17 16 15 12 10 12 21 26 28 32 42 48 46
9 24 33 60 43 40 29 17 28 53 57 57 62 55 26 14 8 9 13 16 21 24 26 26 25 23 23 22 20 18 16 16 16 17 15 13 16 25 31 33 36 38 40
31 34 42 44 56 52 52 50 28 45 62 59 59 54 57 46 21 10 9 12 15 19 22 23 23 21 21 22 24 25 24 19 16 16 16 15 15 16 24 34 38 40 41
28 33 35 40 44 50 53 60 58 45 56 65 64 61 59 62 70 45 16 10 10 12 16 18 20 22 20 20 22 27 32 33 33 31 28 23 17 14 15 19 26 32 37
8 24 27 31 48 52 56 68 71 77 58 62 77 68 62 58 59 72 67 38 14 10 11 13 15 19 21 21 20 20 23 27 30 33 33 33 32 31 28 24 23 24 26
9 6 29 30 33 42 47 51 77 79 84 75 84 78 68 64 64 59 67 69 62 44 22 13 11 12 14 18 21 22 21 21 21 22 22 23 26 29 31 32 32 31 30
16 23 24 42 39 42 45 44 54 75 86 87 91 79 76 85 70 59 52 51 56 61 61 56 43 30 19 14 15 18 20 21 20 22 22 22 20 19 19 20 21 26 32
15 24 35 33 37 45 48 48 41 63 67 88 96 93 81 83 83 82 72 63 56 51 45 42 43 49 54 54 44 32 17 16 16 19 22 23 24 25 24 23 21 20 20
21 24 31 40 44 51 53 51 31 37 46 81 92 96 98 88 72 70 66 60 55 50 38 31 36 42 44 47 52 54 54 54 50 43 29 19 17 20 25 27 27 27 25
44 40 42 46 51 61 64 64 52 39 38 51 78 90 93 96 98 76 61 67 44 30 22 26 30 32 37 41 41 41 45 48 48 49 53 54 50 33 20 18 21 26 29
36 54 52 63 68 75 76 64 66 57 46 55 60 51 53 71 75 68 54 51 40 31 33 52 23 14 14 22 19 14 12 15 20 18 25 34 48 64 77 69 45 21 20
59 69 66 70 74 71 72 65 52 47 52 54 49 48 35 29 31 26 18 16 16 18 18 14 9 8 12 24 13 6 6 6 6 6 6 6 6 10 24 91 85 54 59
96 79 83 89 93 84 81 74 65 41 36 36 39 31 86 40 36 28 28 29 25 24 20 15 12 8 8 8 9 9 10 9 9 10 11 10 10 9 10 18 16 22 74
89 95 93 89 91 86 86 88 79 51 47 41 38 37 35 32 30 28 27 28 26 24 21 14 13 13 13 11 10 10 9 9 10 11 11 12 12 11 12 12 12 15 52
100 92 96 100 100 99 89 94 91 79 58 54 49 48 46 43 38 36 34 32 30 27 23 17 12 15 15 15 14 13 11 10 10 11 12 11 11 10 10 11 12 12 33
100 100 99 76 96 97 90 94 92 92 84 69 64 59 55 52 47 43 41 38 34 30 25 19 13 15 16 18 17 16 16 14 13 12 10 9 8 8 8 9 11 12 20
73 85 100 100 98 100 96 98 100 97 94 84 78 73 67 60 55 51 46 41 36 31 25 20 15 14 13 14 16 17 19 16 12 10 9 8 9 11 11 12 13 17 30
91 100 96 94 99 100 100 99 97 98 100 100 97 87 74 68 62 55 49 44 38 35 30 24 19 17 15 15 16 17 14 12 9 9 10 12 14 20 24 26 30 35 49
92 100 100 96 90 97 98 98 95 92 98 98 99 99 97 90 81 63 53 48 42 36 32 28 25 20 19 19 17 14 12 12 9 13 23 31 29 25 29 39 47 49 77
86 100 100 100 100 99 99 99 94 90 88 91 94 97 98 94 76 62 52 46 40 35 33 30 26 23 21 18 15 15 21 24 24 31 39 48 58 58 52 51 49 55 58
100 100 100 95 100 100 100 100 96 94 88 86 88 93 85 72 63 58 52 42 39 40 37 36 30 24 18 14 20 31 33 30 29 33 54 55 70 83 79 55 70 61 66
100 99 100 89 96 100 100 99 100 99 98 88 84 75 68 65 62 54 49 49 46 44 41 36 27 19 16 16 19 23 30 39 48 56 67 77 91 78 84 100 100 99 100
99 98 100 100 100 100 99 83 99 95 91 85 75 73 70 64 65 61 57 54 50 47 39 32 36 39 44 40 32 34 31 34 51 61 86 97 96 70 68 85 99 96 99
Wind_Speed
36 39 40 41 44 45 42 40 39 40 41 41 41 39 38 36 33 31 31 29 29 28 27 27 25 24 23 23 22 22 21 20 21 22 21 20 19 17 17 18 17 18 18
38 38 41 42 42 45 46 46 43 41 41 42 43 41 40 39 38 36 34 32 32 30 30 29 28 27 26 25 25 25 24 24 24 24 24 23 21 20 20 21 22 22 23
42 41 41 42 43 45 46 48 48 45 43 42 44 42 42 42 41 39 38 35 34 33 33 32 31 30 29 28 27 28 27 27 26 26 26 25 24 23 24 24 26 27 27
40 44 44 44 45 44 46 48 49 49 48 46 45 44 44 43 42 42 41 39 37 36 35 33 33 32 31 30 29 30 29 29 28 27 27 27 28 27 27 28 29 29 30
43 45 46 46 48 48 47 47 49 51 51 51 49 47 44 43 43 43 43 42 40 39 37 36 35 33 32 32 30 31 30 30 30 29 29 30 31 31 31 31 31 32 32
47 47 47 48 49 51 51 49 50 51 53 54 53 52 46 45 42 43 44 44 43 41 39 38 36 35 35 34 32 33 32 31 31 31 31 32 34 34 35 35 35 36 36
51 50 50 50 51 52 51 51 52 53 54 54 54 54 52 48 46 44 44 45 46 44 43 42 40 39 39 36 35 37 35 34 35 35 35 35 35 36 37 39 40 41 41
56 54 55 53 52 52 52 53 53 55 55 55 54 55 55 53 52 49 46 46 46 46 46 45 44 43 42 40 39 39 38 39 39 39 39 39 39 40 40 41 42 43 44
61 60 57 58 56 55 54 55 51 54 56 57 55 55 56 55 55 54 53 50 48 47 46 46 46 46 45 45 42 42 42 42 42 42 42 42 43 43 44 44 45 46 46
63 63 62 59 60 58 56 56 58 56 54 59 67 58 57 54 54 53 55 54 52 51 49 47 46 46 46 46 46 46 46 47 47 46 46 46 47 47 47 47 48 48 47
69 66 65 66 64 62 58 57 59 56 58 59 54 58 61 56 55 53 52 51 51 51 51 50 50 49 48 47 47 47 48 50 51 51 51 51 52 52 51 50 50 50 49
72 69 68 69 68 64 61 59 59 59 57 57 59 40 53 57 53 52 51 51 52 52 51 49 48 49 49 50 51 51 51 51 52 52 53 55 57 57 56 55 55 54 52
70 70 70 71 69 65 63 61 62 62 61 61 58 51 54 51 48 52 50 47 47 48 48 49 49 49 49 49 50 51 52 53 54 55 56 57 58 59 61 62 61 60 58
72 72 71 69 68 63 62 61 62 62 62 59 59 60 53 54 52 54 52 49 48 47 49 48 48 49 51 51 51 52 53 53 54 55 57 58 60 61 62 64 64 64 65
74 71 70 68 67 65 63 63 63 63 60 59 58 56 55 55 54 54 55 52 52 50 50 51 50 51 51 53 53 52 51 51 52 53 54 56 59 62 63 61 61 63 68
66 68 66 64 63 64 63 63 62 64 64 61 59 58 53 56 55 55 54 54 53 52 52 52 52 52 51 52 52 51 52 53 53 54 55 56 57 57 61 65 66 66 65
59 63 64 63 62 61 60 59 60 60 61 62 61 59 57 58 56 56 56 55 55 54 54 53 53 53 53 54 55 55 56 56 56 57 58 59 60 61 63 64 68 68 69
56 68 62 63 64 63 65 64 63 61 60 60 59 58 57 58 57 57 56 56 56 56 57 57 55 54 54 55 56 57 58 59 60 61 61 62 63 65 66 67 69 71 72
49 55 67 69 65 65 62 61 65 62 60 59 59 59 57 58 57 57 57 57 58 58 58 58 58 57 56 56 56 57 58 60 61 63 64 65 67 68 69 70 70 72 73
74 63 58 60 68 63 58 58 60 65 64 60 57 57 56 57 57 57 57 57 57 58 59 58 59 58 59 59 58 57 57 60 63 65 67 68 69 70 72 73 72 69 68
43 48 57 60 51 50 53 54 53 55 59 62 62 59 54 53 53 54 55 55 56 56 57 58 59 58 59 58 58 58 59 61 62 64 67 67 68 67 66 64 63 60 61
53 55 51 55 53 53 52 51 50 48 48 51 54 56 56 56 53 52 52 53 54 55 56 57 57 56 56 56 56 57 59 59 59 56 53 54 56 56 55 55 51 50 55
59 59 54 53 51 53 52 52 52 51 50 49 49 49 49 50 51 52 52 52 52 53 54 54 53 53 53 53 54 56 53 52 53 53 55 52 52 52 56 55 51 50 48
49 51 55 49 49 51 50 51 49 48 48 47 47 47 49 50 50 51 51 50 50 51 51 52 52 51 51 51 51 54 53 54 55 53 56 55 53 49 50 51 51 48 44
41 44 48 48 50 54 48 46 46 46 47 48 47 47 48 48 49 49 49 49 50 50 50 51 51 50 51 51 52 57 57 57 56 56 56 53 47 48 49 46 47 51 50
37 42 44 46 46 51 45 44 43 44 45 46 47 47 48 49 49 48 49 49 49 49 51 50 47 45 45 48 50 52 55 59 60 58 52 50 44 44 43 50 51 53 53
Wind_Direction
241 242 240 238 237 237 238 239 238 236 234 234 235 233 233 232 231 232 232 230 233 233 233 235 237 239 243 247 252 256 259 260 262 264 263 263 262 254 251 249 251 254 259
240 240 241 240 238 237 237 238 239 239 238 236 235 234 233 234 233 232 234 233 233 234 237 239 241 243 246 249 252 255 259 260 260 262 262 260 263 261 255 253 257 260 265
241 240 240 242 240 239 238 237 238 239 239 239 238 236 235 234 235 235 234 234 236 237 238 239 242 244 246 248 252 257 259 260 261 260 260 260 258 258 259 259 261 266 271
241 240 240 241 242 241 239 239 238 239 240 239 240 237 236 235 235 235 236 236 235 239 241 242 244 245 248 251 253 256 258 261 263 262 260 260 259 259 260 262 263 267 273
243 240 240 240 240 241 240 239 239 239 240 240 239 238 237 237 236 236 237 238 238 238 240 243 245 247 249 251 252 256 259 259 261 263 263 260 260 259 261 264 267 270 274
246 242 240 241 242 240 241 240 240 240 239 239 239 241 237 238 237 236 237 238 239 240 241 242 244 246 249 250 252 255 258 261 263 263 263 264 264 264 264 265 267 271 274
242 244 241 239 242 243 241 241 239 239 240 239 239 239 238 237 238 237 238 238 239 239 240 241 241 243 246 247 249 253 256 258 261 263 264 264 264 266 267 269 271 273 276
240 241 243 240 238 242 243 240 240 241 240 240 239 239 239 237 237 237 236 237 239 240 241 242 243 243 245 246 248 251 253 256 258 262 264 267 267 267 267 268 270 272 275
238 238 239 242 240 238 240 240 242 241 241 241 239 238 238 239 238 238 238 237 238 239 242 244 245 246 247 248 248 251 255 256 259 260 263 266 268 270 271 272 273 274 276
239 238 237 238 241 238 236 238 236 237 242 244 238 236 236 237 239 239 240 240 240 241 242 244 247 251 252 254 254 255 256 258 261 262 265 267 269 270 272 273 275 277 278
240 237 237 237 238 240 236 237 236 236 236 237 248 241 238 235 236 237 239 241 243 244 245 247 248 250 253 255 257 258 260 261 264 265 265 267 268 270 272 273 275 277 278
240 238 235 235 236 237 236 234 236 235 234 238 239 222 231 234 236 238 239 241 241 242 244 246 249 252 254 255 257 259 261 262 264 267 270 271 271 271 271 273 274 275 276
237 237 234 232 234 235 234 233 234 234 234 234 237 249 248 236 238 242 239 240 242 244 246 247 250 251 252 254 256 257 258 260 263 265 267 269 271 273 274 274 274 274 275
233 232 232 231 231 233 232 232 233 234 235 235 236 237 241 242 241 243 241 241 241 244 248 248 253 256 255 254 256 259 261 262 263 266 267 269 270 272 274 276 275 275 275
229 229 230 228 229 230 232 231 231 234 233 234 236 238 238 241 242 242 243 243 243 246 249 253 254 254 255 257 260 261 263 265 266 268 270 271 272 272 272 274 275 279 275
227 226 228 228 227 228 229 230 232 233 234 235 236 238 231 241 242 243 244 245 246 249 251 253 255 258 260 259 260 260 261 263 266 268 269 271 273 274 274 272 276 276 275
225 224 226 226 227 228 228 228 231 234 235 235 235 237 239 241 243 244 245 247 250 252 254 254 255 257 260 260 260 261 262 265 267 269 271 273 273 274 274 275 275 275 273
222 222 224 225 226 224 227 229 228 231 233 235 236 237 239 241 242 245 247 250 251 253 253 255 256 257 259 260 262 265 267 269 271 273 274 274 275 275 275 275 274 274 272
217 218 222 224 225 227 229 231 232 227 231 234 235 237 238 241 243 245 248 251 253 254 255 255 255 256 258 260 263 266 268 271 273 275 276 276 276 275 275 274 271 270 270
233 231 230 226 223 225 229 230 235 235 230 230 233 237 239 241 243 246 248 250 252 255 256 257 257 259 261 264 266 268 271 272 273 275 276 276 276 276 275 273 272 270 270
226 223 225 229 226 221 225 229 231 233 235 237 236 236 237 240 243 246 248 250 252 254 257 258 259 261 263 266 269 270 271 274 276 276 277 278 278 276 274 273 273 274 267
214 224 220 226 232 232 231 232 236 238 240 237 235 236 238 239 242 245 247 249 251 253 255 257 260 263 265 266 268 270 272 274 275 280 281 281 282 279 279 276 275 278 272
235 229 226 229 231 235 239 241 241 239 238 240 240 239 238 239 241 243 245 247 250 253 255 258 260 262 264 265 266 268 272 275 275 277 279 280 283 281 279 275 280 278 275
211 225 224 226 230 233 234 234 233 233 235 234 234 236 238 240 241 243 245 246 249 253 256 259 261 263 265 263 264 266 268 274 275 276 274 275 279 278 280 275 275 273 273
218 219 216 220 229 232 227 233 233 233 236 237 234 235 237 238 240 243 245 247 250 253 256 259 262 263 264 264 263 262 266 273 274 273 272 270 276 278 270 269 272 277 281
224 226 222 224 231 224 227 232 237 239 234 235 237 237 239 240 243 245 248 250 252 254 255 257 259 262 264 264 264 264 265 272 272 272 269 271 268 272 269 271 271 273 274